EDT,Max TemperatureF,Mean TemperatureF,Min TemperatureF,Max Dew PointF,MeanDew PointF,Min DewpointF,Max Humidity, Mean Humidity, Min Humidity, Max Sea Level PressureIn, Mean Sea Level PressureIn, Min Sea Level PressureIn, Max VisibilityMiles, Mean VisibilityMiles, Min VisibilityMiles, Max Wind SpeedMPH, Mean Wind SpeedMPH, Max Gust SpeedMPH,PrecipitationIn, CloudCover, Events, WindDirDegrees
2013-9-1,83,76,68,69,67,66,93,76,58,29.98,29.89,29.80,10,6,0,14,3,19,0.32,7,Fog-Rain-Thunderstorm,214
2013-9-2,84,76,67,69,67,66,97,78,58,29.99,29.88,29.81,10,7,3,13,4,15,T,6,,241
2013-9-3,84,72,60,69,63,59,93,70,47,30.02,29.93,29.82,10,9,5,16,4,19,0.10,5,Rain-Thunderstorm,239
2013-9-4,84,70,56,61,58,53,100,69,37,30.16,30.09,30.01,10,5,0,8,2,12,0.00,2,Fog,325
2013-9-5,83,69,54,61,57,53,100,73,45,30.21,30.14,30.09,10,7,0,8,2,13,0.00,4,Fog,341
2013-9-6,84,71,57,62,58,55,100,69,37,30.24,30.15,30.06,10,6,0,8,2,12,0.00,4,Fog,10
2013-9-7,84,71,58,63,59,56,100,73,46,30.16,30.09,29.98,10,5,0,12,3,19,0.00,3,Fog,273
2013-9-8,85,72,59,67,62,57,97,71,44,30.06,30.00,29.94,10,6,0,10,2,13,0.00,5,Fog,300
2013-9-9,90,77,64,66,64,60,100,69,38,30.15,30.07,30.01,10,5,0,13,2,17,0.00,3,Fog,192
2013-9-10,89,77,64,68,64,61,93,66,38,30.22,30.16,30.10,10,8,3,8,2,12,0.00,3,,137
2013-9-11,88,78,68,68,67,63,97,70,43,30.21,30.14,30.08,10,9,4,13,2,16,0.00,4,,244
2013-9-12,85,75,64,70,66,60,97,78,58,30.15,30.02,29.87,10,5,1,31,3,42,0.38,6,Rain-Thunderstorm,220
2013-9-13,76,65,53,64,58,45,93,66,38,29.98,29.91,29.85,10,8,2,14,6,19,0.00,5,,279
2013-9-14,77,62,47,50,46,41,93,61,29,30.09,30.03,29.98,10,10,10,9,3,11,0.00,0,,31
2013-9-15,80,64,48,60,52,47,96,67,37,30.19,30.12,30.08,10,10,9,10,2,13,0.00,3,,150
2013-9-16,78,67,56,61,58,55,100,78,56,30.19,30.14,30.10,10,8,3,12,3,15,T,6,,353
2013-9-17,77,66,55,55,53,51,86,66,46,30.24,30.20,30.16,10,10,10,13,5,18,0.00,3,,108
2013-9-18,69,62,55,61,57,52,93,76,59,30.25,30.19,30.15,10,6,2,6,1,14,0.14,7,Rain,80
2013-9-19,78,70,62,64,62,61,93,77,60,30.23,30.15,30.06,10,6,2,10,2,13,0.02,7,,236
2013-9-20,83,72,61,65,62,59,93,70,47,30.13,30.02,29.88,10,4,0,13,2,16,0.00,4,Fog,247
2013-9-21,69,65,61,65,62,57,97,89,81,29.86,29.79,29.73,10,5,1,16,2,20,0.69,8,Rain,297
2013-9-22,73,62,50,57,52,49,96,72,47,29.94,29.87,29.79,10,7,0,9,2,13,0.00,4,Fog,349
2013-9-23,77,62,46,56,50,45,96,70,43,30.03,29.99,29.93,10,6,0,10,2,15,0.00,2,Fog,18
2013-9-24,79,65,51,57,53,49,100,70,40,30.08,30.00,29.88,10,6,1,9,2,11,0.00,4,,82
2013-9-25,68,64,59,63,60,57,93,87,81,29.94,29.87,29.83,10,9,3,7,1,10,0.16,8,Rain,74
2013-9-26,77,66,55,61,57,49,93,66,38,30.03,29.94,29.87,10,8,2,9,2,12,0.04,5,Rain,6
2013-9-27,79,65,50,55,52,48,96,66,36,30.15,30.09,30.04,10,7,0,9,1,16,0.00,1,Fog,180
2013-9-28,76,63,49,55,52,48,96,70,43,30.23,30.16,30.10,10,10,2,7,1,11,0.00,1,,65
2013-9-29,74,62,50,58,53,50,93,73,53,30.18,30.08,30.01,10,10,9,8,1,12,0.00,6,,53
2013-9-30,76,65,54,58,56,53,93,70,46,30.12,30.03,29.96,10,9,5,9,2,13,0.00,5,,274